Погода в Аксенове

Россия / Рязанская область     54°51′54″N   39°41′23″E
темп.,
°C
ветер,
м/с
пор.,
м/с
влажн.,
%
обл.,
%
осадки,
мм/ч
давл.,
гПа
погр.,
м
17 апреля, сб
сб1700:00+10всв3990100 0.1 1020217
03:00+10св4992100 0.4 1020281
06:00+8всв499694 0.2 1020275
09:00+12всв697698 0.2 1020514
12:00+17в7105399 0.0 10191093
15:00+19в7114693 0.0 10181764
18:00+16всв813545 0.3 10161256
21:00+12всв7156291 0.3 1017671
18 апреля, вс
вс1800:00+10всв7136098 0.0 1018674
03:00+9в4962100 0.1 1018763
06:00+6всв4688100 3.8 1019507
09:00+6всв4690100 5.1 1020390
12:00+8всв458296 0.1 1021511
15:00+10св567471 0.1 1021831
18:00+9всв587682 0.0 1021679
21:00+7всв4108968 0.1 1022356
19 апреля, пн
пн1900:00+6всв498988 0.1 1022331
03:00+7всв51180100 0.4 1022732
06:00+6всв5892100 0.5 1022946
09:00+5всв61193100 1.3 1023957
12:00+3всв61396100 1.5 1023723
15:00+3всв51396100 3.3 1024706
18:00+5в51290100 0.3 10231032
21:00+5в51178100 0.4 1024922
20 апреля, вт
вт2000:00+4всв51090100 0.0 1023932
03:00+4в51196100 0.0 1022717
06:00+4в61293100 0.0 1022602
09:00+5в61185100 0.0 1022681
12:00+8в71077100 0.0 1021944
15:00+7в71381100 0.2 1020972
18:00+7в81577100 0.1 10171076
21:00+7в91878100 0.6 10141115
21 апреля, ср
ср2100:00+5в112389100 7.6 10091150
03:00+6вюв102089100 13.8 10071284
06:00+6вюв91790100 0.3 1006996
09:00+7юв91790100 0.9 10051188
12:00+9юв81689100 0.9 10041515
15:00+8ю91679100 2.1 10061501
18:00+6ююз81488100 0.2 10101062
21:00+6ююз61283100 0.2 1014956